PBO Station Position Time Series. Reference Frame : NAM14
Format Version,1.1.0
4-character ID,P419
Station name,Rock_Peak_WA2008
Begin Date, 2008-07-26
End Date, 2019-10-07
Release Date, 2019-10-08
Reference position, 47.4092986814 North Latitude, -123.3665263087 East Longitude, 935.98137 meters elevation,
Date, North (mm), East (mm), Vertical (mm), North Std. Deviation (mm), East Std. Deviation (mm),              Vertical Std. Deviation (mm), Quality,
2008-07-26,0.00, 0.00, 0.00, 2.23, 1.51, 6.84, repro,
2008-07-27,-1.25, 0.27, -2.99, 2.26, 1.51, 6.91, repro,
2008-07-28,-0.91, 0.68, 3.31, 2.36, 1.56, 7.10, repro,
2008-07-29,-1.14, -1.22, 1.56, 2.30, 1.54, 7.09, repro,
2008-07-30,-0.62, 2.04, -2.56, 2.30, 1.54, 7.13, repro,
2008-07-31,-1.26, 0.17, 1.85, 2.22, 1.50, 6.87, repro,
2008-08-01,-1.73, 1.73, -0.41, 2.24, 1.50, 6.86, repro,
2008-08-02,-0.91, 1.28, 4.14, 2.24, 1.51, 6.89, repro,
2008-08-03,0.02, 0.43, -2.11, 2.29, 1.56, 7.12, repro,
2008-08-04,-0.85, 0.24, -4.59, 2.23, 1.52, 6.89, repro,
2008-08-05,-1.76, 0.83, 1.93, 2.22, 1.50, 6.82, repro,
2008-08-06,-0.82, -0.23, -1.38, 2.28, 1.51, 6.91, repro,
2008-08-07,-1.23, 0.97, 2.58, 2.39, 1.60, 7.28, repro,
2008-08-08,-0.60, -0.17, -1.45, 2.36, 1.57, 7.19, repro,
2008-08-09,-0.95, -1.12, -3.22, 2.30, 1.53, 7.00, repro,
2008-08-10,-0.12, 0.01, -4.90, 2.31, 1.53, 7.01, repro,
2008-08-11,0.48, -0.38, -6.60, 2.29, 1.52, 6.95, repro,
2008-08-12,-1.07, 0.34, -2.82, 2.37, 1.57, 7.24, repro,
2008-08-13,-0.34, -0.19, -1.46, 2.30, 1.53, 7.00, repro,
2008-08-14,-0.73, 0.42, -2.15, 2.30, 1.53, 7.00, repro,
2008-08-15,0.17, 1.15, -1.32, 2.31, 1.53, 7.04, repro,
2008-08-16,-1.05, 0.08, 2.52, 2.29, 1.52, 6.92, repro,
2008-08-17,-0.55, -1.95, 7.21, 2.31, 1.53, 7.04, repro,
2008-08-18,-1.23, -0.63, 2.76, 2.30, 1.53, 6.97, repro,
2008-08-19,-2.43, 0.62, 7.01, 2.33, 1.53, 7.06, repro,
2008-08-20,-0.93, 0.43, -3.66, 2.31, 1.54, 7.02, repro,
2008-08-21,-1.39, 1.74, 0.97, 2.30, 1.52, 6.95, repro,
2008-08-22,-0.69, -0.25, 0.51, 2.37, 1.56, 7.11, repro,
2008-08-23,-0.80, -0.74, 4.16, 2.31, 1.52, 6.97, repro,
2008-08-24,-1.12, -1.46, -2.53, 2.33, 1.56, 7.14, repro,
2008-08-25,-0.93, 0.07, -2.58, 2.31, 1.54, 7.02, repro,
2008-08-26,-2.52, -0.13, -0.38, 2.31, 1.53, 7.01, repro,
2008-08-27,-2.43, -0.99, 1.90, 2.31, 1.54, 7.01, repro,
2008-08-28,-2.10, 2.10, 3.47, 2.47, 1.63, 7.35, repro,
2008-08-29,-0.66, 2.85, -1.13, 2.34, 1.55, 7.06, repro,
2008-08-30,-1.26, 0.42, -1.78, 2.34, 1.56, 7.10, repro,
2008-08-31,-0.45, 0.59, -1.29, 2.32, 1.55, 7.06, repro,
2008-09-01,-1.03, -0.87, -12.69, 2.33, 1.54, 7.04, repro,
2008-09-02,-0.36, 0.11, -8.16, 2.31, 1.54, 7.02, repro,
2008-09-03,0.46, 0.13, -3.10, 2.32, 1.55, 7.04, repro,
2008-09-04,-0.45, 0.39, 0.33, 2.49, 1.65, 7.61, repro,
2008-09-05,-0.50, 0.17, -3.51, 2.40, 1.60, 7.25, repro,
2008-09-06,-1.64, 0.79, -5.45, 2.32, 1.55, 7.08, repro,
2008-09-07,-0.54, 0.70, -3.71, 2.32, 1.55, 7.10, repro,
2008-09-08,-0.16, 0.52, -5.04, 2.31, 1.55, 7.03, repro,
2008-09-09,1.01, 0.29, 1.87, 2.40, 1.55, 7.13, repro,
2008-09-10,1.90, 0.50, -6.63, 2.38, 1.58, 7.18, repro,
2008-09-11,-0.83, 1.02, 0.10, 2.44, 1.64, 7.43, repro,
2008-09-12,-0.64, -0.02, 5.90, 2.31, 1.56, 7.10, repro,
2008-09-13,0.38, 1.05, -1.72, 2.36, 1.58, 7.16, repro,
2008-09-14,0.82, 0.73, 0.31, 2.37, 1.59, 7.16, repro,
2008-09-15,-0.26, 1.35, 1.95, 2.34, 1.54, 7.03, repro,
2008-09-16,-0.05, 0.90, -1.52, 2.33, 1.57, 7.16, repro,
2008-09-17,1.05, 0.70, -2.81, 2.39, 1.60, 7.33, repro,
2008-09-18,-0.48, 0.45, -3.73, 2.29, 1.53, 6.99, repro,
2008-09-19,0.20, -0.26, -2.85, 2.30, 1.53, 6.98, repro,
2008-09-20,0.31, -0.00, 5.33, 2.37, 1.57, 7.11, repro,
2008-09-21,0.28, 0.53, -0.13, 2.33, 1.55, 7.09, repro,
2008-09-22,-0.58, 1.44, -1.99, 2.28, 1.52, 6.93, repro,
2008-09-23,0.38, 0.86, -5.59, 2.28, 1.52, 6.96, repro,
2008-09-24,-1.09, 0.91, -0.30, 2.41, 1.63, 7.39, repro,
2008-09-25,-0.64, 1.15, -2.63, 2.40, 1.58, 7.19, repro,
2008-09-26,-0.09, 0.67, -5.91, 2.32, 1.51, 6.92, repro,
2008-09-27,0.09, 1.78, -3.41, 2.35, 1.56, 7.02, repro,
2008-09-28,0.65, 0.91, -5.61, 2.29, 1.52, 6.95, repro,
2008-09-29,0.91, 2.20, -2.58, 2.34, 1.57, 7.05, repro,
2008-09-30,0.65, -0.11, -0.63, 2.30, 1.53, 6.98, repro,
2008-10-01,0.42, -0.10, -2.41, 2.32, 1.52, 6.98, repro,
2008-10-02,1.60, 2.32, 2.80, 2.37, 1.56, 7.11, repro,
2008-10-03,0.59, 2.90, 0.30, 2.41, 1.62, 7.27, repro,
2008-10-04,-1.06, 0.70, -0.04, 2.29, 1.52, 6.91, repro,
2008-10-05,0.18, 1.26, 1.62, 2.30, 1.52, 6.94, repro,
2008-10-06,-0.29, 0.33, -1.95, 2.31, 1.52, 6.98, repro,
2008-10-07,1.45, -0.18, -5.01, 2.43, 1.57, 7.29, repro,
2008-10-08,1.11, 2.79, -13.33, 2.32, 1.54, 7.00, repro,
2008-10-09,0.58, 0.90, -12.84, 2.23, 1.50, 6.79, repro,
2008-10-10,0.99, 0.39, -11.19, 2.25, 1.51, 6.88, repro,
2008-10-11,0.06, 0.60, -5.49, 2.26, 1.51, 6.92, repro,
2008-10-12,-1.30, 1.49, -6.85, 2.26, 1.51, 6.92, repro,
2008-10-13,1.34, 2.35, -7.19, 2.27, 1.51, 6.92, repro,
2008-10-14,-0.05, 2.38, -6.96, 2.23, 1.51, 6.85, repro,
2008-10-15,-0.27, 1.06, -7.88, 2.32, 1.53, 7.08, repro,
2008-10-16,1.10, 1.88, -10.98, 2.32, 1.55, 7.11, repro,
2008-10-17,-0.73, 3.00, -9.71, 2.25, 1.51, 6.93, repro,
2008-10-18,-0.01, 0.62, -6.74, 2.27, 1.51, 6.94, repro,
2008-10-19,0.05, 0.46, -11.81, 2.24, 1.51, 6.91, repro,
2008-10-20,-0.27, 0.87, -4.35, 2.26, 1.51, 6.92, repro,
2008-10-21,1.86, 3.37, -5.65, 2.31, 1.55, 7.09, repro,
2008-10-22,0.19, 1.59, -8.35, 2.25, 1.52, 6.97, repro,
2008-10-23,-0.09, 1.59, -4.77, 2.32, 1.52, 7.08, repro,
2008-10-24,0.39, 0.44, -3.40, 2.25, 1.51, 6.91, repro,
2008-10-25,0.45, 0.23, -3.24, 2.25, 1.52, 6.94, repro,
2008-10-26,0.32, 1.08, -9.60, 2.24, 1.51, 6.90, repro,
2008-10-27,1.18, 1.29, -8.27, 2.24, 1.51, 6.92, repro,
2008-10-28,-0.02, 1.04, -8.99, 2.35, 1.54, 7.01, repro,
2008-10-29,0.22, 0.97, -2.95, 2.42, 1.57, 7.11, repro,
2008-10-30,-0.68, 0.27, -1.66, 2.25, 1.51, 6.88, repro,
2008-10-31,0.46, 1.93, -12.72, 2.31, 1.58, 7.15, repro,
2008-11-01,-1.24, 1.40, -4.37, 2.29, 1.57, 7.17, repro,
2008-11-02,-0.19, -0.45, 4.72, 2.27, 1.55, 7.09, repro,
2008-11-03,0.95, 0.95, -1.72, 2.27, 1.53, 7.00, repro,
2008-11-04,0.16, 1.62, -1.54, 2.27, 1.54, 7.03, repro,
2008-11-05,-0.41, 0.66, -4.60, 2.29, 1.58, 7.16, repro,
2008-11-06,-0.72, 0.52, -16.32, 2.28, 1.58, 7.17, repro,
2008-11-07,-1.01, 1.41, -13.71, 2.30, 1.57, 7.19, repro,
2008-11-08,0.13, 1.35, -15.53, 2.28, 1.55, 7.05, repro,
2008-11-09,-0.78, 1.85, -8.57, 2.28, 1.55, 7.07, repro,
2008-11-10,0.70, 0.98, -0.75, 2.27, 1.57, 7.09, repro,
2008-11-11,0.14, 3.97, -6.66, 2.37, 1.73, 7.81, repro,
2008-11-12,-0.88, 0.45, -6.70, 2.27, 1.54, 7.03, repro,
2008-11-13,0.86, 1.55, -4.07, 2.35, 1.61, 7.32, repro,
2008-11-14,0.10, 2.41, -14.77, 2.36, 1.66, 7.47, repro,
2008-11-15,-1.01, 4.35, -17.02, 2.37, 1.67, 7.55, repro,
2008-11-16,0.46, 2.88, -10.99, 2.30, 1.62, 7.31, repro,
2008-11-17,-0.98, 2.74, -11.76, 2.42, 1.72, 7.70, repro,
2008-11-18,1.01, 1.50, -13.65, 2.56, 1.87, 8.54, repro,
2008-11-19,-0.55, 2.07, -14.49, 2.35, 1.64, 7.41, repro,
2008-11-20,-0.55, 2.11, -14.24, 2.35, 1.62, 7.33, repro,
2008-11-21,-1.19, 4.12, -11.42, 2.46, 1.76, 8.03, repro,
2008-12-02,0.27, 2.35, -6.55, 2.31, 1.60, 7.15, repro,
2008-12-03,0.47, 1.99, -13.80, 2.34, 1.63, 7.27, repro,
2008-12-04,0.39, 4.17, -17.21, 2.39, 1.75, 7.86, repro,
2008-12-05,1.08, 2.69, -6.19, 2.35, 1.71, 7.50, repro,
2008-12-06,1.32, 1.09, -6.34, 2.53, 1.89, 8.47, repro,
2008-12-07,1.28, 2.01, -11.08, 2.34, 1.70, 7.66, repro,
2008-12-08,1.51, 1.76, -9.18, 2.27, 1.65, 7.42, repro,
2008-12-09,2.47, 2.65, -21.86, 2.30, 1.58, 7.11, repro,
2008-12-10,1.27, 3.92, -25.38, 2.31, 1.59, 7.17, repro,
2008-12-11,0.81, 1.91, -20.05, 2.41, 1.67, 7.55, repro,
2008-12-12,0.73, 1.18, -10.39, 2.47, 1.80, 8.10, repro,
2008-12-13,1.23, 1.84, -7.61, 2.33, 1.65, 7.41, repro,
2008-12-14,0.96, 3.74, -13.66, 2.24, 1.51, 6.89, repro,
2008-12-15,0.23, 5.29, -11.82, 2.25, 1.55, 7.02, repro,
2008-12-16,0.61, 4.49, -13.91, 2.23, 1.50, 6.88, repro,
2008-12-17,0.03, 1.16, -8.79, 2.31, 1.53, 7.04, repro,
2008-12-18,2.11, 0.45, -10.60, 2.25, 1.51, 6.96, repro,
2008-12-19,1.13, 1.68, -20.91, 2.30, 1.53, 7.12, repro,
2008-12-20,0.36, 2.33, -18.16, 2.27, 1.56, 7.08, repro,
2008-12-21,-0.46, 3.35, -15.65, 2.28, 1.55, 7.10, repro,
2008-12-22,1.03, 3.35, -12.79, 2.25, 1.52, 6.93, repro,
2008-12-23,0.56, 2.92, -11.73, 2.25, 1.52, 6.97, repro,
2008-12-24,0.55, 2.31, -10.81, 2.25, 1.52, 6.93, repro,
2008-12-25,-0.65, 3.43, -6.96, 2.24, 1.52, 6.91, repro,
2008-12-26,0.36, 1.81, -5.53, 2.24, 1.51, 6.92, repro,
2008-12-27,-2.36, 0.91, -8.95, 2.24, 1.52, 6.92, repro,
2008-12-28,0.52, 1.22, -14.61, 2.24, 1.52, 6.94, repro,
2008-12-29,-0.53, 1.90, -9.90, 2.25, 1.52, 6.98, repro,
2008-12-30,-0.40, 1.53, -17.54, 2.24, 1.51, 6.93, repro,
2008-12-31,-2.06, 4.10, -16.90, 2.23, 1.50, 6.89, repro,
2009-01-01,0.20, 2.34, -8.43, 2.24, 1.50, 6.90, repro,
2009-01-02,1.48, 1.35, -16.20, 2.24, 1.51, 6.92, repro,
2009-01-03,0.18, 2.15, -14.00, 2.24, 1.52, 6.99, repro,
2009-01-04,-0.02, 0.33, -15.51, 2.24, 1.52, 6.95, repro,
2009-01-05,-1.49, 2.28, -10.32, 2.23, 1.52, 6.92, repro,
2009-01-06,-2.35, 1.85, -14.05, 2.25, 1.51, 6.93, repro,
2009-01-07,-2.03, 1.69, -17.34, 2.47, 1.67, 7.58, repro,
2009-01-08,-0.63, 3.93, -13.95, 2.29, 1.56, 7.14, repro,
2009-01-09,0.36, 4.39, -24.27, 2.30, 1.57, 7.23, repro,
2009-01-10,0.53, 6.80, -29.42, 2.25, 1.52, 6.96, repro,
2009-01-11,-1.21, 4.90, -23.22, 2.24, 1.52, 6.93, repro,
2009-01-12,-0.57, 4.46, -23.15, 2.24, 1.51, 6.91, repro,
2009-01-13,-0.36, 2.98, -21.60, 2.24, 1.52, 6.93, repro,
2009-01-14,0.33, 3.29, -18.31, 2.24, 1.53, 6.99, repro,
2009-01-15,0.58, 3.70, -18.49, 2.22, 1.53, 6.98, repro,
2009-01-16,0.05, 3.39, -18.12, 2.23, 1.52, 6.95, repro,
2009-01-17,1.41, 3.69, -17.81, 2.22, 1.52, 6.92, repro,
2009-01-18,1.41, 3.02, -19.40, 2.23, 1.51, 6.92, repro,
2009-01-19,0.96, 3.66, -20.69, 2.23, 1.52, 6.96, repro,
2009-01-20,0.93, 3.50, -19.17, 2.23, 1.53, 7.02, repro,
2009-01-21,0.98, 4.02, -15.88, 2.22, 1.52, 6.95, repro,
2009-01-22,0.84, 3.51, -12.29, 2.22, 1.52, 6.96, repro,
2009-01-23,0.63, 3.23, -20.41, 2.23, 1.52, 6.94, repro,
2009-01-24,1.13, 3.60, -22.16, 2.21, 1.51, 6.93, repro,
2009-01-25,0.82, 3.74, -24.88, 2.22, 1.52, 6.98, repro,
2009-01-26,0.96, 5.23, -24.44, 2.23, 1.53, 7.01, repro,
2009-01-27,-0.41, 4.05, -17.93, 2.21, 1.52, 6.93, repro,
2009-01-28,-1.24, 5.78, -18.92, 2.22, 1.52, 6.94, repro,
2009-01-29,-0.17, 4.21, -21.26, 2.22, 1.51, 6.93, repro,
2009-01-30,1.25, 4.13, -20.09, 2.21, 1.52, 6.91, repro,
2009-01-31,1.26, 4.65, -13.79, 2.23, 1.52, 6.98, repro,
2009-02-01,0.09, 3.46, -19.73, 2.21, 1.52, 6.94, repro,
2009-02-02,0.21, 4.76, -20.59, 2.21, 1.52, 6.96, repro,
2009-02-03,1.20, 3.39, -25.36, 2.27, 1.56, 7.08, repro,
2009-02-04,0.43, 3.58, -18.84, 2.21, 1.53, 6.97, repro,
2009-02-05,1.03, 3.92, -14.19, 2.27, 1.56, 7.09, repro,
2009-02-06,-0.30, 3.39, -18.68, 2.32, 1.61, 7.28, repro,
2009-02-07,0.30, 4.09, -18.78, 2.25, 1.56, 7.07, repro,
2009-02-08,0.32, 3.51, -10.94, 2.23, 1.52, 6.95, repro,
2009-02-09,-0.53, 4.31, -10.60, 2.25, 1.56, 7.07, repro,
2009-02-10,-0.28, 2.93, -16.18, 2.21, 1.51, 6.90, repro,
2009-02-11,1.85, 4.21, -31.45, 2.31, 1.62, 7.33, repro,
2009-02-12,0.11, 2.79, -15.32, 2.26, 1.56, 7.12, repro,
2009-02-13,-0.06, 3.40, -16.18, 2.26, 1.56, 7.05, repro,
2009-02-14,0.06, 2.94, -15.61, 2.21, 1.52, 6.93, repro,
2009-02-15,-0.77, 2.75, -12.95, 2.23, 1.55, 7.07, repro,
2009-02-16,-0.47, 2.82, -6.26, 2.19, 1.52, 6.91, repro,
2009-02-17,0.33, 3.22, -5.84, 2.30, 1.58, 7.14, repro,
2009-02-18,0.68, 3.20, -14.64, 2.25, 1.56, 7.14, repro,
2009-02-19,-0.75, 3.74, -22.97, 2.25, 1.57, 7.15, repro,
2009-02-20,1.18, 3.15, -20.78, 2.23, 1.56, 7.09, repro,
2009-02-21,0.64, 3.70, -17.70, 2.23, 1.56, 7.12, repro,
2009-02-22,0.36, 3.24, -14.61, 2.20, 1.53, 6.98, repro,
2009-02-23,2.14, 3.11, -21.27, 2.29, 1.61, 7.29, repro,
2009-02-24,0.48, 5.79, -15.94, 2.36, 1.70, 7.49, repro,
2009-02-25,-0.11, 3.24, -24.41, 172.26, 198.76, 372.95, repro,
2009-02-26,0.20, 3.53, -13.99, 2.22, 1.56, 7.03, repro,
2009-02-27,0.79, 3.36, -16.68, 2.47, 1.77, 8.10, repro,
2009-02-28,-0.37, 3.34, -18.18, 2.25, 1.58, 7.20, repro,
2009-03-01,-0.03, 3.72, -18.23, 2.25, 1.58, 7.20, repro,
2009-03-02,0.10, 4.74, -19.90, 2.23, 1.57, 7.12, repro,
2009-03-03,0.05, 4.38, -13.31, 2.27, 1.61, 7.28, repro,
2009-03-04,0.17, 3.25, -13.50, 2.17, 1.53, 6.92, repro,
2009-03-05,1.16, 5.84, -19.60, 2.23, 1.56, 7.10, repro,
2009-03-06,1.32, 4.59, -15.87, 2.28, 1.63, 7.37, repro,
2009-03-07,1.43, 3.81, -12.22, 2.24, 1.56, 7.11, repro,
2009-03-08,0.78, 3.31, -14.66, 2.22, 1.56, 7.04, repro,
2009-03-09,1.37, 3.89, -22.30, 2.22, 1.56, 7.07, repro,
2009-03-10,0.46, 3.86, -20.96, 2.28, 1.61, 7.26, repro,
2009-03-11,0.95, 3.73, -18.18, 2.21, 1.54, 6.98, repro,
2009-03-12,1.07, 3.68, -21.03, 2.24, 1.58, 7.17, repro,
2009-03-13,0.15, 3.40, -15.67, 2.23, 1.57, 7.12, repro,
2009-03-14,-0.04, 3.31, -13.28, 2.18, 1.53, 6.89, repro,
2009-03-15,2.41, 2.38, -16.47, 2.18, 1.53, 6.90, repro,
2009-03-16,0.40, 3.08, -16.54, 2.21, 1.53, 6.96, repro,
2009-03-17,0.32, 3.43, -17.23, 2.25, 1.58, 7.12, repro,
2009-03-18,0.87, 4.82, -23.71, 2.21, 1.54, 6.97, repro,
2009-03-19,-2.03, 5.82, -16.01, 2.19, 1.52, 6.89, repro,
2009-03-20,-0.29, 5.60, -20.00, 2.19, 1.52, 6.86, repro,
2009-03-21,1.41, 3.66, -16.73, 2.19, 1.53, 6.93, repro,
2009-03-22,0.48, 3.63, -16.35, 2.21, 1.53, 6.95, repro,
2009-03-23,0.16, 3.89, -20.01, 2.21, 1.53, 6.94, repro,
2009-03-24,-0.26, 5.60, -18.17, 2.20, 1.54, 6.95, repro,
2009-03-25,-0.42, 3.65, -13.64, 2.20, 1.53, 6.92, repro,
2009-03-26,0.61, 3.08, -16.48, 2.19, 1.53, 6.90, repro,
2009-03-27,-0.17, 4.70, -13.68, 2.26, 1.55, 7.05, repro,
2009-03-28,0.10, 2.93, -15.47, 2.26, 1.55, 7.03, repro,
2009-03-29,0.26, 4.51, -13.71, 2.25, 1.55, 7.01, repro,
2009-03-30,-0.49, 2.90, -12.27, 2.25, 1.55, 6.99, repro,
2009-03-31,-0.55, 3.99, -15.95, 2.25, 1.55, 7.03, repro,
2009-04-01,1.22, 3.85, -14.41, 2.24, 1.55, 7.02, repro,
2009-04-02,-1.46, 4.42, -6.39, 2.30, 1.57, 7.14, repro,
2009-04-03,0.12, 4.22, -15.96, 2.32, 1.59, 7.22, repro,
2009-04-04,-0.12, 3.80, -15.92, 2.25, 1.55, 7.00, repro,
2009-04-05,0.89, 4.20, -21.25, 2.25, 1.54, 6.98, repro,
2009-04-06,0.76, 4.73, -19.32, 2.27, 1.55, 7.05, repro,
2009-04-07,1.04, 3.38, -15.01, 2.25, 1.54, 7.01, repro,
2009-04-08,-0.45, 3.30, -13.81, 2.27, 1.55, 7.04, repro,
2009-04-09,0.53, 3.17, -19.15, 2.30, 1.59, 7.17, repro,
2009-04-10,-0.33, 3.51, -15.17, 2.25, 1.53, 6.95, repro,
2009-04-11,0.04, 4.51, -16.20, 2.30, 1.58, 7.16, repro,
2009-04-12,2.12, 4.15, -26.17, 2.26, 1.54, 7.03, repro,
2009-04-13,-0.44, 3.39, -20.03, 2.29, 1.58, 7.16, repro,
2009-04-14,0.92, 3.79, -17.78, 2.26, 1.54, 7.03, repro,
2009-04-15,0.31, 3.92, -14.01, 2.26, 1.54, 7.00, repro,
2009-04-16,0.37, 3.85, -24.21, 2.28, 1.54, 7.05, repro,
2009-04-17,1.90, 4.68, -26.20, 2.29, 1.57, 7.15, repro,
2009-04-18,1.37, 4.46, -22.04, 2.27, 1.55, 7.08, repro,
2009-04-19,0.81, 4.57, -17.52, 2.26, 1.54, 7.08, repro,
2009-04-20,1.25, 4.69, -16.66, 2.25, 1.54, 7.00, repro,
2009-04-21,0.92, 3.49, -18.03, 2.33, 1.60, 7.25, repro,
2009-04-22,-1.16, 3.83, -11.51, 2.28, 1.54, 7.06, repro,
2009-04-23,0.20, 4.13, -13.61, 2.31, 1.57, 7.18, repro,
2009-04-24,0.55, 3.19, -13.26, 2.32, 1.59, 7.23, repro,
2009-04-25,1.82, 3.75, -15.50, 2.26, 1.53, 7.03, repro,
2009-04-26,-0.09, 3.25, -19.06, 2.26, 1.52, 6.97, repro,
2009-04-27,1.16, 3.51, -19.52, 2.33, 1.58, 7.18, repro,
2009-04-28,0.95, 2.93, -17.42, 2.31, 1.56, 7.14, repro,
2009-04-29,1.78, 3.19, -19.14, 2.33, 1.63, 7.34, repro,
2009-04-30,1.58, 4.33, -17.54, 2.37, 1.66, 7.47, repro,
2009-05-01,0.26, 3.24, -16.18, 2.26, 1.53, 6.99, repro,
2009-05-02,0.76, 3.94, -15.34, 2.28, 1.52, 7.01, repro,
2009-05-03,0.23, 3.45, -14.60, 2.28, 1.53, 7.01, repro,
2009-05-04,0.87, 4.29, -11.10, 2.29, 1.55, 7.09, repro,
2009-05-05,-0.85, 4.71, -15.04, 2.28, 1.54, 7.06, repro,
2009-05-06,-0.05, 2.91, -16.23, 2.27, 1.53, 7.02, repro,
2009-05-07,-4.05, 4.44, -24.50, 2.25, 1.52, 6.91, repro,
2009-05-08,-2.07, 2.82, -20.12, 2.25, 1.52, 6.93, repro,
2009-05-09,-1.63, 1.86, -19.02, 2.26, 1.52, 6.94, repro,
2009-05-10,-3.20, 1.34, -18.09, 2.24, 1.52, 6.93, repro,
2009-05-11,-2.15, 1.01, -14.74, 2.26, 1.53, 6.98, repro,
2009-05-12,-2.78, 2.30, -14.49, 2.36, 1.61, 7.31, repro,
2009-05-13,-1.66, 1.95, -14.27, 2.36, 1.60, 7.27, repro,
2009-05-14,-1.71, 1.14, -8.97, 2.24, 1.53, 6.93, repro,
2009-05-15,-2.55, 1.72, -10.87, 2.24, 1.53, 6.94, repro,
2009-05-16,-1.53, 1.28, -16.43, 2.25, 1.52, 6.95, repro,
2009-05-17,-2.26, 1.57, -17.56, 2.25, 1.53, 6.99, repro,
2009-05-18,-1.32, 2.04, -11.59, 2.26, 1.53, 7.00, repro,
2009-05-19,-2.57, -0.10, -6.89, 2.28, 1.56, 7.14, repro,
2009-05-20,-2.69, 1.30, -8.84, 2.25, 1.52, 6.95, repro,
2009-05-21,-3.10, 0.93, -16.32, 2.24, 1.52, 6.95, repro,
2009-05-22,-2.32, 2.21, -16.19, 2.27, 1.53, 7.04, repro,
2009-05-23,-1.56, 0.97, -13.91, 2.26, 1.53, 7.01, repro,
2009-05-24,-1.28, 1.83, -14.86, 2.27, 1.53, 7.04, repro,
2009-05-25,-1.69, 2.06, -12.51, 2.25, 1.53, 6.97, repro,
2009-05-26,-2.21, 2.11, -10.14, 2.23, 1.52, 6.93, repro,
2009-05-27,-2.43, 1.44, -12.96, 2.24, 1.52, 6.97, repro,
2009-05-28,-1.06, 1.13, -8.55, 2.25, 1.53, 7.03, repro,
2009-05-29,-0.41, 0.68, -11.64, 2.26, 1.54, 7.07, repro,
2009-05-30,-0.54, 1.81, -13.71, 2.27, 1.53, 7.09, repro,
2009-05-31,-2.05, 1.25, -11.69, 2.25, 1.53, 7.08, repro,
2009-06-01,-1.72, 1.51, -7.18, 2.24, 1.52, 7.02, repro,
2009-06-02,-1.67, 0.93, -13.45, 2.24, 1.51, 6.98, repro,
2009-06-03,-1.45, 1.33, -16.94, 2.25, 1.53, 7.02, repro,
2009-06-04,-0.70, 0.93, -12.04, 2.27, 1.54, 7.10, repro,
2009-06-05,-1.32, 0.31, -9.06, 2.25, 1.53, 7.06, repro,
2009-06-06,-1.18, 0.04, -9.40, 2.30, 1.55, 7.15, repro,
2009-06-07,-1.13, 1.25, -10.38, 2.24, 1.52, 6.98, repro,
2009-06-08,-1.12, 1.29, -12.22, 2.25, 1.51, 6.95, repro,
2009-06-09,-1.47, 1.61, -8.13, 2.27, 1.53, 7.04, repro,
2009-06-10,-2.04, 1.80, -8.54, 2.36, 1.63, 7.39, repro,
2009-06-11,-1.88, 1.05, -9.63, 2.26, 1.53, 7.03, repro,
2009-06-12,-2.51, 1.49, -12.16, 2.24, 1.53, 7.01, repro,
2009-06-13,-1.54, 1.29, -7.85, 2.24, 1.51, 6.93, repro,
2009-06-14,-1.21, 0.35, -12.17, 2.28, 1.58, 7.15, repro,
2009-06-15,-1.99, 1.14, -8.05, 2.25, 1.53, 7.02, repro,
2009-06-16,-2.17, -0.02, -9.15, 2.24, 1.53, 6.99, repro,
2009-06-17,-1.83, 1.16, -6.36, 2.30, 1.57, 7.18, repro,
2009-06-18,-1.54, 0.66, -4.96, 2.24, 1.52, 6.96, repro,
2009-06-19,-2.70, -0.66, -7.74, 2.25, 1.53, 7.00, repro,
2009-06-20,-1.47, 0.27, -10.00, 2.25, 1.54, 7.01, repro,
2009-06-21,-1.77, -0.88, 3.03, 2.24, 1.53, 6.99, repro,
2009-06-22,-2.36, 1.11, 0.32, 2.25, 1.54, 7.02, repro,
2009-06-23,-1.55, 1.11, -3.76, 2.24, 1.53, 6.99, repro,
2009-06-24,-2.92, 1.52, -3.91, 2.25, 1.53, 7.01, repro,
2009-06-25,-2.45, 1.67, -7.82, 2.24, 1.53, 6.97, repro,
2009-06-26,-1.69, 0.21, -8.79, 2.26, 1.55, 7.05, repro,
2009-06-27,-2.23, 0.33, -5.90, 2.27, 1.56, 7.09, repro,
2009-06-28,-2.59, 1.20, -9.87, 2.27, 1.55, 7.10, repro,
2009-06-29,-1.27, 1.42, -5.90, 2.26, 1.55, 7.07, repro,
2009-06-30,-1.84, 0.36, -7.84, 2.25, 1.56, 7.06, repro,
2009-07-01,-1.29, 0.50, -5.56, 2.27, 1.56, 7.11, repro,
2009-07-02,-1.48, 0.86, -5.17, 2.24, 1.53, 6.96, repro,
2009-07-03,-1.98, 2.10, -4.12, 2.30, 1.56, 7.15, repro,
2009-07-04,-5.84, 48.52, -3.58, 140.06, 251.71, 333.33, repro,
2009-07-05,-2.27, 0.66, -4.52, 2.23, 1.53, 6.94, repro,
2009-07-06,-1.69, 2.22, -2.20, 2.36, 1.64, 7.36, repro,
2009-07-07,-1.56, 0.02, -4.41, 2.24, 1.54, 6.99, repro,
2009-07-08,-1.17, 1.02, -4.42, 2.27, 1.54, 7.05, repro,
2009-07-09,-1.06, 0.67, -6.94, 2.25, 1.54, 6.98, repro,
2009-07-10,-0.84, 1.37, -5.17, 2.23, 1.53, 6.92, repro,
2009-07-11,-1.36, 2.19, 0.79, 2.24, 1.54, 6.96, repro,
2009-07-12,-3.01, 0.72, -2.94, 2.23, 1.54, 6.97, repro,
2009-07-13,-3.19, 0.18, -6.02, 2.31, 1.59, 7.24, repro,
2009-07-14,-1.18, 1.00, -3.98, 2.26, 1.54, 7.02, repro,
2009-07-15,-1.69, 0.68, -2.56, 2.22, 1.53, 6.93, repro,
2009-07-16,-1.56, 0.78, -5.14, 2.21, 1.53, 6.93, repro,
2009-07-17,-2.28, 0.46, -3.21, 2.22, 1.53, 6.92, repro,
2009-07-18,-1.55, -0.35, -2.54, 2.31, 1.58, 7.18, repro,
2009-07-19,-1.39, 0.01, -8.04, 2.24, 1.54, 6.99, repro,
2009-07-20,-1.19, 0.17, -6.66, 2.24, 1.53, 6.94, repro,
2009-07-21,-2.05, 1.61, -0.38, 2.22, 1.53, 6.90, repro,
2009-07-22,-1.64, 1.79, 1.03, 2.22, 1.54, 6.94, repro,
2009-07-23,-2.55, 0.84, -0.69, 2.24, 1.54, 6.95, repro,
2009-07-24,-2.49, 0.45, -6.19, 2.26, 1.58, 7.21, repro,
2009-07-25,-2.73, 1.98, -1.93, 2.31, 1.57, 7.21, repro,
2009-07-26,-2.82, 1.16, -7.78, 2.29, 1.56, 7.15, repro,
2009-07-27,-2.19, 1.35, -9.35, 2.23, 1.53, 6.96, repro,
2009-07-28,-0.77, 1.86, 1.89, 2.28, 1.57, 7.14, repro,
2009-07-29,-0.94, 2.26, -0.28, 2.31, 1.59, 7.22, repro,
2009-07-30,-3.69, 1.54, 1.98, 2.73, 1.76, 7.99, repro,
2009-07-31,-1.97, 1.25, -1.44, 2.31, 1.57, 7.13, repro,
2009-08-01,-1.39, 0.56, -3.66, 2.24, 1.54, 6.99, repro,
2009-08-02,-1.08, 0.69, -5.26, 2.25, 1.55, 7.06, repro,
2009-08-03,0.64, -0.35, -3.47, 2.25, 1.55, 7.01, repro,
2009-08-04,-0.97, 0.60, -4.51, 2.25, 1.54, 7.03, repro,
2009-08-05,-1.95, 0.46, -5.13, 2.31, 1.56, 7.13, repro,
2009-08-06,-1.98, 0.22, -1.46, 2.24, 1.54, 6.97, repro,
2009-08-07,-0.91, 0.50, -1.56, 2.58, 1.88, 8.67, repro,
2009-08-08,-2.74, 0.69, -4.29, 2.31, 1.59, 7.20, repro,
2009-08-09,-2.04, 1.14, -4.70, 2.27, 1.55, 7.03, repro,
2009-08-10,-1.11, -0.56, -9.49, 2.26, 1.55, 6.99, repro,
2009-08-11,-1.49, 0.05, -8.93, 2.25, 1.54, 6.96, repro,
2009-08-12,-1.40, 0.46, -6.31, 2.26, 1.54, 6.99, repro,
2009-08-13,-1.33, -0.76, -2.06, 2.37, 1.60, 7.28, repro,
2009-08-14,-1.51, 0.03, -1.15, 2.31, 1.58, 7.12, repro,
2009-08-15,-1.25, -0.25, -4.85, 2.31, 1.56, 7.09, repro,
2009-08-16,-0.14, 0.11, -2.05, 2.29, 1.56, 7.02, repro,
2009-08-17,-1.60, 1.03, -4.61, 2.26, 1.55, 6.96, repro,
2009-08-18,0.16, 0.24, -2.33, 2.34, 1.57, 7.15, repro,
2009-08-19,-0.35, 0.16, 1.29, 2.29, 1.56, 7.10, repro,
2009-08-20,-0.88, -0.87, -2.09, 2.28, 1.56, 7.06, repro,
2009-08-21,-0.79, -0.56, -4.67, 2.33, 1.59, 7.21, repro,
2009-08-22,-0.63, 1.86, 0.62, 2.40, 1.65, 7.49, repro,
2009-08-23,-1.25, 0.55, 0.81, 2.57, 1.74, 8.24, repro,
2009-08-24,-2.48, 1.23, 1.17, 2.34, 1.60, 7.24, repro,
2009-08-25,-2.59, 1.32, 5.97, 2.45, 1.71, 7.63, repro,
2009-08-26,-1.37, 1.43, -0.37, 2.31, 1.59, 7.16, repro,
2009-08-27,0.22, 0.33, -3.53, 2.32, 1.59, 7.17, repro,
2009-08-28,-1.28, 1.41, -4.82, 2.28, 1.54, 6.98, repro,
2009-08-29,-1.74, 1.44, -7.05, 2.29, 1.56, 7.05, repro,
2009-08-30,-1.01, 1.38, -2.64, 2.27, 1.55, 7.03, repro,
2009-08-31,-1.76, 0.26, -4.31, 2.27, 1.55, 7.03, repro,
2009-09-01,-1.73, 1.44, -3.93, 2.27, 1.55, 7.01, repro,
2009-09-02,-2.39, 0.89, -0.44, 2.37, 1.69, 7.73, repro,
2009-09-03,-0.27, 1.01, -3.70, 2.25, 1.56, 7.04, repro,
2009-09-04,-2.01, 0.31, -0.91, 2.28, 1.56, 7.10, repro,
2009-09-05,0.21, 1.25, 3.68, 2.27, 1.59, 7.15, repro,
2009-09-06,0.41, -0.71, -10.03, 2.42, 1.63, 7.53, repro,
2009-09-07,-0.55, 1.84, -4.82, 2.28, 1.56, 7.13, repro,
2009-09-08,-0.81, 1.33, -3.61, 2.28, 1.55, 7.05, repro,
2009-09-09,-0.04, 0.72, 1.14, 2.33, 1.62, 7.26, repro,
2009-09-10,-1.01, 1.31, -8.73, 2.29, 1.56, 7.11, repro,
2009-09-11,-0.20, 1.53, -8.35, 2.29, 1.57, 7.12, repro,
2009-09-12,-0.35, 0.39, -0.92, 2.29, 1.55, 7.05, repro,
2009-09-13,-0.45, 0.58, 4.79, 2.25, 1.56, 7.08, repro,
2009-09-14,-1.79, 1.31, -1.02, 2.32, 1.59, 7.12, repro,
2009-09-15,-2.08, 0.10, -1.87, 2.26, 1.55, 7.03, repro,
2009-09-16,0.11, 0.17, -3.43, 2.27, 1.55, 7.05, repro,
2009-09-17,-2.12, 1.71, -7.92, 2.29, 1.61, 7.26, repro,
2009-09-18,-1.29, 0.29, -0.43, 2.28, 1.59, 7.26, repro,
2009-09-19,0.21, 0.42, -1.20, 2.24, 1.54, 6.99, repro,
2009-09-20,-1.40, 0.39, -4.89, 2.22, 1.54, 6.99, repro,
2009-09-21,-1.88, 1.06, -5.17, 2.24, 1.55, 7.02, repro,
2009-09-22,-0.43, 0.01, -2.95, 2.28, 1.59, 7.12, repro,
2009-09-23,0.60, 0.60, -2.44, 2.31, 1.64, 7.34, repro,
2009-09-24,-0.47, 0.09, -4.24, 2.23, 1.54, 6.96, repro,
2009-09-25,-0.15, 0.77, -1.61, 2.25, 1.57, 7.08, repro,
2009-09-26,0.00, 0.72, -4.89, 2.25, 1.55, 7.02, repro,
2009-09-27,-1.46, 0.80, -1.52, 2.24, 1.55, 7.03, repro,